DW7251 Weather Reports


Display with metric or nautical units.
time (UTC)temp
F
wind
direction
speed
MPH
gust
MPH
rain 1hr
in
rain 24hr
in
rain mn
in
humidity
%
barometer
mb
20260831045615 56 148 1.0 5.0 0.00 0.00 0.00 80 1027.9
20260831045104 56 201 1.0 5.0 0.00 0.00 0.00 80 1027.9
20260831044603 56 167 2.0 5.0 0.00 0.00 0.00 80 1028.1
20260831044053 56 223 1.0 5.0 0.00 0.00 0.00 79 1028.3
20260831043536 56 223 1.0 5.0 0.00 0.00 0.00 79 1028.3
20260831043031 56 144 1.0 4.0 0.00 0.00 0.00 79 1028.3
20260831042523 56 158 1.0 4.0 0.00 0.00 0.00 79 1028.4
20260831042015 57 148 1.0 4.0 0.00 0.00 0.00 79 1028.5
20260831041506 57 174 1.0 4.0 0.00 0.00 0.00 79 1028.6
20260831040958 57 144 0.0 4.0 0.00 0.00 0.00 79 1028.7
20260831040444 56 149 1.0 4.0 0.00 0.00 0.00 79 1028.8
20260831035936 56 175 1.0 4.0 0.00 0.00 0.00 78 1028.8
20260831035424 57 189 0.0 3.0 0.00 0.00 0.00 79 1028.8
20260831034303 57 170 1.0 3.0 0.00 0.00 0.00 78 1029.0
20260831033803 57 143 0.0 3.0 0.00 0.00 0.00 78 1029.1
20260831033250 57 148 0.0 3.0 0.00 0.00 0.00 78 1029.2
20260831032758 57 143 0.0 3.0 0.00 0.00 0.00 78 1029.3
20260831032245 57 157 0.0 3.0 0.00 0.00 0.00 77 1029.4
20260831031740 57 43 0.0 3.0 0.00 0.00 0.00 78 1029.4
20260831031242 57 148 0.0 3.0 0.00 0.00 0.00 77 1029.5
20260831030726 58 234 0.0 3.0 0.00 0.00 0.00 75 1029.6
20260831030218 58 90 0.0 2.0 0.00 0.00 0.00 75 1029.7
20260831025700 59 113 0.0 2.0 0.00 0.00 0.00 75 1029.9
20260831025152 59 328 0.0 0.0 0.00 0.00 0.00 76 1030.0
20260831024641 58 146 0.0 3.0 0.00 0.00 0.00 76 1030.1
20260831024130 58 47 0.0 3.0 0.00 0.00 0.00 76 1030.2
20260831023624 58 129 0.0 1.0 0.00 0.00 0.00 75 1030.2
20260831023107 58 289 0.0 1.0 0.00 0.00 0.00 76 1030.4
20260831022606 58 92 0.0 0.0 0.00 0.00 0.00 77 1030.5
20260831021438 57 211 0.0 2.0 0.00 0.00 0.00 78 1030.7
20260831020942 57 306 0.0 2.0 0.00 0.00 0.00 78 1030.7
20260831020431 57 91 0.0 1.0 0.00 0.00 0.00 78 1030.8
20260831015258 57 302 0.0 1.0 0.00 0.00 0.00 77 1031.0
20260831014140 56 257 0.0 0.0 0.00 0.00 0.00 80 1031.3
20260831013034 55 283 0.0 1.0 0.00 0.00 0.00 81 1031.4
20260831011914 55 105 0.0 0.0 0.00 0.00 0.00 81 1031.4
20260831011403 55 309 0.0 2.0 0.00 0.00 0.00 81 1031.5
20260831010857 55 137 0.0 1.0 0.00 0.00 0.00 82 1031.5
20260831010355 55 23 0.0 1.0 0.00 0.00 0.00 82 1031.5
20260831005858 55 310 0.0 1.0 0.00 0.00 0.00 82 1031.6
20260831005403 55 275 0.0 1.0 0.00 0.00 0.00 82 1031.6
20260831004907 55 298 0.0 1.0 0.00 0.00 0.00 82 1031.7
20260831003746 54 314 0.0 0.0 0.00 0.00 0.00 83 1031.8
20260831002612 54 351 0.0 0.0 0.00 0.00 0.00 84 1031.9
20260831002107 54 314 0.0 1.0 0.00 0.00 0.00 84 1031.8
20260831001602 54 335 0.0 3.0 0.00 0.00 0.00 84 1031.8
20260831001111 54 59 0.0 1.0 0.00 0.00 0.00 84 1031.9
20260831000559 54 301 0.0 0.0 0.00 0.00 0.00 85 1031.9
20260831000041 54 260 0.0 1.0 0.00 0.00 0.00 85 1031.8
20260830235549 53 213 0.0 1.0 0.00 0.00 0.00 85 1031.8
20260830235046 53 330 0.0 2.0 0.00 0.00 0.00 85 1031.8
20260830234534 53 308 0.0 0.0 0.00 0.00 0.00 85 1031.8
20260830234019 53 347 0.0 2.0 0.00 0.00 0.00 86 1031.9
20260830233528 53 286 0.0 1.0 0.00 0.00 0.00 86 1031.9
20260830232355 53 263 0.0 2.0 0.00 0.00 0.00 86 1031.8
20260830231847 52 198 0.0 1.0 0.00 0.00 0.00 86 1031.9
20260830230708 52 310 0.0 2.0 0.00 0.00 0.00 87 1031.8
20260830225536 52 306 0.0 0.0 0.00 0.00 0.00 87 1031.9
20260830224422 52 275 0.0 0.0 0.00 0.00 0.00 87 1031.8
20260830223919 52 298 0.0 0.0 0.00 0.00 0.00 87 1031.9
20260830223407 52 154 0.0 2.0 0.00 0.00 0.00 88 1031.9
20260830222853 52 276 0.0 2.0 0.00 0.00 0.00 88 1031.9
20260830221727 52 288 0.0 0.0 0.00 0.00 0.00 88 1031.8
20260830221215 51 326 0.0 0.0 0.00 0.00 0.00 88 1031.8
20260830214831 51 279 0.0 2.0 0.00 0.00 0.00 89 1031.8
20260830214338 51 313 0.0 0.0 0.00 0.00 0.00 89 1031.8
20260830213823 51 236 0.0 1.0 0.00 0.00 0.00 89 1031.8
20260830213307 51 262 0.0 1.0 0.00 0.00 0.00 89 1031.7
20260830212753 51 289 0.0 1.0 0.00 0.00 0.00 89 1031.6
20260830212253 51 309 0.0 1.0 0.00 0.00 0.00 89 1031.6
20260830211749 51 304 0.0 0.0 0.00 0.00 0.00 89 1031.6
20260830211257 51 293 0.0 0.0 0.00 0.00 0.00 89 1031.6
20260830210746 51 257 0.0 0.0 0.00 0.00 0.00 89 1031.5
20260830205626 51 236 0.0 0.0 0.00 0.00 0.00 89 1031.6
20260830204455 51 280 0.0 0.0 0.00 0.00 0.00 89 1031.5
20260830203935 51 303 0.0 0.0 0.00 0.00 0.00 89 1031.5
20260830202801 51 285 0.0 0.0 0.00 0.00 0.00 89 1031.5
20260830201649 51 276 0.0 1.0 0.00 0.00 0.00 89 1031.5
20260830201151 51 269 0.0 0.0 0.00 0.00 0.00 89 1031.4
20260830200656 51 243 0.0 0.0 0.00 0.00 0.00 89 1031.4
20260830200202 51 219 0.0 0.0 0.00 0.00 0.00 89 1031.4
20260830195654 51 281 0.0 1.0 0.00 0.00 0.00 89 1031.4
20260830195149 51 265 0.0 0.0 0.00 0.00 0.00 89 1031.4
20260830194659 51 308 0.0 2.0 0.00 0.00 0.00 89 1031.4
20260830194208 52 305 0.0 1.0 0.00 0.00 0.00 89 1031.4
20260830193715 52 274 0.0 1.0 0.00 0.00 0.00 89 1031.4
20260830192531 52 328 0.0 0.0 0.00 0.00 0.00 89 1031.3
20260830191350 52 34 0.0 3.0 0.00 0.00 0.00 89 1031.3
20260830190849 52 286 0.0 3.0 0.00 0.00 0.00 89 1031.3
20260830190340 52 305 0.0 2.0 0.00 0.00 0.00 89 1031.3
20260830185845 52 23 0.0 2.0 0.00 0.00 0.00 89 1031.3
20260830185348 52 269 0.0 1.0 0.00 0.00 0.00 89 1031.3
20260830184211 52 294 0.0 2.0 0.00 0.00 0.00 89 1031.3
20260830183719 52 277 0.0 2.0 0.00 0.00 0.00 89 1031.3
20260830183228 52 323 0.0 3.0 0.00 0.00 0.00 89 1031.3
20260830182723 52 290 0.0 3.0 0.00 0.00 0.00 89 1031.3
20260830181548 52 295 0.0 3.0 0.00 0.00 0.00 89 1031.3
20260830181036 52 284 0.0 2.0 0.00 0.00 0.00 89 1031.2
20260830175249 53 320 0.0 1.0 0.00 0.00 0.00 89 1031.3
20260830174746 53 326 0.0 1.0 0.00 0.00 0.00 89 1031.3
20260830174252 53 333 0.0 1.0 0.00 0.00 0.00 89 1031.4
20260830173734 53 314 0.0 3.0 0.00 0.00 0.00 89 1031.4
20260830172618 53 324 0.0 3.0 0.00 0.00 0.00 89 1031.5
20260830172114 53 285 0.0 2.0 0.00 0.00 0.00 89 1031.5
20260830171604 54 295 0.0 2.0 0.00 0.00 0.00 89 1031.5
20260830171111 54 269 0.0 1.0 0.00 0.00 0.00 89 1031.5
20260830165942 54 313 0.0 0.0 0.00 0.00 0.00 89 1031.6
20260830165432 54 321 0.0 0.0 0.00 0.00 0.00 89 1031.7
20260830164915 54 329 0.0 0.0 0.00 0.00 0.00 89 1031.7
20260830163733 54 321 0.0 0.0 0.00 0.00 0.00 89 1031.7
20260830163220 54 321 0.0 0.0 0.00 0.00 0.00 89 1031.7
20260830162704 54 321 0.0 0.0 0.00 0.00 0.00 89 1031.7
20260830162150 54 305 0.0 0.0 0.00 0.00 0.00 89 1031.8
20260830161659 54 305 0.0 0.0 0.00 0.00 0.00 89 1031.8
20260830161143 54 305 0.0 0.0 0.00 0.00 0.00 89 1031.7
20260830160010 53 7 0.0 0.0 0.00 0.00 0.00 89 1031.8
20260830155508 54 7 0.0 0.0 0.00 0.00 0.00 88 1031.8
20260830155011 54 6 0.0 0.0 0.00 0.00 0.00 89 1031.8
20260830154455 54 3 0.0 0.0 0.00 0.00 0.00 89 1031.8
20260830153954 54 3 0.0 0.0 0.00 0.00 0.00 89 1031.9
20260830152202 54 353 0.0 0.0 0.00 0.00 0.00 89 1031.9
20260830151654 54 355 0.0 0.0 0.00 0.00 0.00 89 1032.0
20260830151140 54 353 0.0 0.0 0.00 0.00 0.00 89 1031.9
20260830145956 54 41 0.0 2.0 0.00 0.00 0.00 88 1031.8
20260830145455 54 40 0.0 0.0 0.00 0.00 0.00 89 1031.8
20260830144333 54 34 0.0 0.0 0.00 0.00 0.00 89 1031.8
20260830143840 54 34 0.0 0.0 0.00 0.00 0.00 89 1031.8
20260830143324 54 34 0.0 0.0 0.00 0.00 0.00 89 1031.8
20260830142830 54 34 0.0 0.0 0.00 0.00 0.00 89 1031.8
20260830142322 54 78 0.0 0.0 0.00 0.00 0.00 89 1031.9
20260830140524 54 126 0.0 0.0 0.00 0.00 0.00 89 1032.1
20260830134751 54 126 0.0 0.0 0.00 0.00 0.00 89 1032.2
20260830134245 54 126 0.0 0.0 0.00 0.00 0.00 89 1032.3
20260830133742 54 163 0.0 1.0 0.00 0.00 0.00 89 1032.4
20260830133245 54 163 0.0 1.0 0.00 0.00 0.00 89 1032.4
20260830132742 54 213 0.0 1.0 0.00 0.00 0.00 89 1032.4
20260830132240 54 87 0.0 0.0 0.00 0.00 0.00 89 1032.4
20260830131742 54 87 0.0 0.0 0.00 0.00 0.00 89 1032.4
20260830131232 54 88 0.0 0.0 0.00 0.00 0.00 89 1032.4
20260830130727 54 87 0.0 0.0 0.00 0.00 0.00 89 1032.4
20260830130237 54 87 0.0 0.0 0.00 0.00 0.00 89 1032.3
20260830125728 54 87 0.0 0.0 0.00 0.00 0.00 89 1032.4
20260830125228 54 87 0.0 0.0 0.00 0.00 0.00 89 1032.3
20260830124710 54 84 0.0 0.0 0.00 0.00 0.00 89 1032.3
20260830124200 54 85 0.0 0.0 0.00 0.00 0.00 89 1032.3
20260830123648 54 82 0.0 0.0 0.00 0.00 0.00 89 1032.4
20260830123156 54 84 0.0 0.0 0.00 0.00 0.00 89 1032.3
20260830122703 54 86 0.0 0.0 0.00 0.00 0.00 89 1032.3
20260830122150 53 86 0.0 0.0 0.00 0.00 0.00 89 1032.3
20260830121642 53 86 0.0 0.0 0.00 0.00 0.00 89 1032.3
20260830120517 53 86 0.0 0.0 0.00 0.00 0.00 89 1032.3
20260830120014 53 86 0.0 0.0 0.00 0.00 0.00 89 1032.2
20260830115513 53 86 0.0 0.0 0.00 0.00 0.00 89 1032.2
20260830115020 53 86 0.0 0.0 0.00 0.00 0.00 89 1032.2
20260830114525 53 86 0.0 0.0 0.00 0.00 0.00 89 1032.1
20260830114015 53 86 0.0 0.0 0.00 0.00 0.00 89 1032.1
20260830113512 53 86 0.0 0.0 0.00 0.00 0.00 89 1032.0
20260830112344 53 134 0.0 0.0 0.00 0.00 0.00 89 1032.2
20260830111829 53 134 0.0 0.0 0.00 0.00 0.00 89 1032.2
20260830111335 53 134 0.0 0.0 0.00 0.00 0.00 89 1032.2
20260830110842 53 134 0.0 0.0 0.00 0.00 0.00 89 1032.2
20260830110345 53 133 0.0 0.0 0.00 0.00 0.00 89 1032.1
20260830105835 53 122 0.0 0.0 0.00 0.00 0.00 89 1032.1
20260830105338 53 134 0.0 2.0 0.00 0.00 0.00 89 1032.0
20260830104158 53 147 0.0 0.0 0.00 0.00 0.00 89 1031.9
20260830103014 53 176 0.0 2.0 0.00 0.00 0.00 89 1031.8
20260830102517 53 134 0.0 0.0 0.00 0.00 0.00 89 1031.8
20260830101958 53 126 0.0 0.0 0.00 0.00 0.00 89 1031.9
20260830100841 53 251 0.0 0.0 0.00 0.00 0.00 88 1031.9
20260830095738 53 151 0.0 0.0 0.00 0.00 0.00 88 1031.8
20260830095219 53 129 0.0 0.0 0.00 0.00 0.00 87 1031.7
20260830094709 53 122 0.0 0.0 0.00 0.00 0.00 87 1031.7
20260830093529 53 133 0.0 0.0 0.00 0.00 0.00 87 1031.6
20260830093024 53 133 0.0 1.0 0.00 0.00 0.00 87 1031.6
20260830091845 53 154 0.0 0.0 0.00 0.00 0.00 86 1031.7
20260830091326 53 155 0.0 0.0 0.00 0.00 0.00 85 1031.6
20260830090836 53 154 0.0 0.0 0.00 0.00 0.00 85 1031.6
20260830090336 53 155 0.0 0.0 0.00 0.00 0.00 84 1031.6
20260830085220 53 164 0.0 0.0 0.00 0.00 0.00 83 1031.6
20260830084722 53 148 0.0 0.0 0.00 0.00 0.00 83 1031.5
20260830084224 54 148 0.0 0.0 0.00 0.00 0.00 82 1031.5
20260830083704 54 144 0.0 0.0 0.00 0.00 0.00 81 1031.4
20260830083146 54 144 0.0 0.0 0.00 0.00 0.00 80 1031.5
20260830082029 54 144 0.0 0.0 0.00 0.00 0.00 79 1031.4
20260830081510 55 144 0.0 0.0 0.00 0.00 0.00 79 1031.3
20260830080955 55 144 0.0 0.0 0.00 0.00 0.00 78 1031.2
20260830080456 55 144 0.0 0.0 0.00 0.00 0.00 78 1031.2
20260830080000 56 144 0.0 1.0 0.00 0.00 0.00 77 1031.2
20260830075451 56 219 0.0 0.0 0.00 0.00 0.00 77 1031.2
20260830074946 56 219 0.0 2.0 0.00 0.00 0.00 76 1031.2
20260830074443 57 148 0.0 2.0 0.00 0.00 0.00 76 1031.2
20260830073943 58 198 0.0 2.0 0.00 0.00 0.00 74 1031.1
20260830073442 58 198 0.0 2.0 0.00 0.00 0.00 74 1031.1
20260830072949 58 186 0.0 3.0 0.00 0.00 0.00 74 1031.1
20260830071811 58 130 0.0 3.0 0.00 0.00 0.00 74 1031.0
20260830070651 59 183 0.0 3.0 0.00 0.00 0.00 73 1031.1
20260830065521 60 205 0.0 4.0 0.00 0.00 0.00 74 1031.1
20260830065007 60 148 0.0 4.0 0.00 0.00 0.00 74 1031.1
20260830064516 60 232 1.0 4.0 0.00 0.00 0.00 73 1031.0
20260830064013 60 232 1.0 4.0 0.00 0.00 0.00 73 1031.0
20260830063513 60 256 1.0 4.0 0.00 0.00 0.00 73 1030.9
20260830061707 61 153 0.0 3.0 0.00 0.00 0.00 73 1031.0
20260830061212 61 149 0.0 3.0 0.00 0.00 0.00 72 1031.0
20260830060718 61 204 1.0 3.0 0.00 0.00 0.00 71 1031.1
20260830060228 61 185 1.0 3.0 0.00 0.00 0.00 70 1031.1
20260830055716 62 145 0.0 3.0 0.00 0.00 0.00 70 1031.2
20260830055223 63 132 0.0 1.0 0.00 0.00 0.00 69 1031.2
20260830054046 62 246 0.0 1.0 0.00 0.00 0.00 68 1031.2
20260830052933 62 269 0.0 1.0 0.00 0.00 0.00 69 1031.3
20260830052433 62 92 0.0 1.0 0.00 0.00 0.00 68 1031.3
20260830051324 62 248 0.0 1.0 0.00 0.00 0.00 70 1031.3
20260830050807 61 146 0.0 1.0 0.00 0.00 0.00 70 1031.3
20260830050304 61 214 0.0 1.0 0.00 0.00 0.00 70 1031.3